Newport News, VA

9:59 AM EDT on July 21, 2017 (GMT -0400)
Newport News-Williamsburg International

Weather History for KPHF - October, 2013

Change the Weather History Date:

Monday, October 7, 2013

  Actual Average Record
Temperature  
Mean Temperature 76 °F -  
Max Temperature 89 °F 73 °F 90 °F (1951)
Min Temperature 64 °F 55 °F 39 °F (2001)
Cooling Degree Days 11    
Growing Degree Days 26 (Base 50)    
Moisture  
Dew Point 68 °F    
Average Humidity 78    
Maximum Humidity 88    
Minimum Humidity 48    
Precipitation  
Precipitation 0.45 in - - ()
Sea Level Pressure  
Sea Level Pressure 29.92 in    
Wind  
Wind Speed 10 mph (SW)    
Max Wind Speed 21 mph    
Max Gust Speed 31 mph    
Visibility 9 miles    
Events Rain    
Averages and records for this station are not official NWS values.
T = Trace of Precipitation, MM = Missing Value Source: NWS Daily Summary

Daily Weather History Graph

Daily Weather History Graph

Search for Another Location

Airport or City:

Trip Planner

Search our weather history database for the weather conditions in past years. The results will help you decide how hot, cold, wet, or windy it might be!

Date:

Astronomy

Oct. 07, 2013 Rise Set
Actual Time 7:06 AM EDT 6:40 PM EDT
Civil Twilight 6:40 AM EDT 7:06 PM EDT
Nautical Twilight 6:10 AM EDT 7:36 PM EDT
Astronomical Twilight 5:40 AM EDT 8:06 PM EDT
Moon 9:50 AM EDT (10/7) 8:27 PM EDT (10/7)
Length of Visible Light 12h 25m
Length of Day
11h 33m
Waxing Crescent, 8% of the Moon is Illuminated
Oct 7
Waxing Crescent
Oct 11
First Quarter
Oct 18
Full
Oct 26
Last Quarter
Nov 3
New

Hourly Weather History & Observations

Time (EDT) Temp. Heat Index Dew Point Humidity Pressure Visibility Wind Dir Wind Speed Gust Speed Precip Events Conditions
12:54 AM 77.0 °F - 66.0 °F 69% 29.97 in 10.0 mi South 9.2 mph - N/A   Overcast
1:54 AM 77.0 °F - 66.9 °F 71% 29.96 in 10.0 mi South 9.2 mph - N/A   Mostly Cloudy
2:54 AM 77.0 °F - 66.9 °F 71% 29.95 in 10.0 mi South 11.5 mph - N/A   Overcast
3:41 AM 75.2 °F - 68.0 °F 78% 29.93 in 10.0 mi South 10.4 mph - 0.00 in   Overcast
3:54 AM 75.9 °F - 68.0 °F 76% 29.93 in 10.0 mi South 8.1 mph - 0.00 in   Overcast
4:30 AM 75.2 °F - 69.8 °F 83% 29.92 in 10.0 mi South 10.4 mph - N/A   Mostly Cloudy
4:54 AM 75.9 °F - 69.1 °F 79% 29.91 in 10.0 mi South 6.9 mph - N/A   Clear
5:54 AM 75.9 °F - 69.1 °F 79% 29.91 in 10.0 mi South 11.5 mph - N/A   Mostly Cloudy
6:49 AM 77.0 °F - 69.8 °F 78% 29.91 in 10.0 mi South 11.5 mph - N/A   Overcast
6:54 AM 77.0 °F - 71.1 °F 82% 29.91 in 10.0 mi South 10.4 mph - N/A   Overcast
7:54 AM 77.0 °F - 70.0 °F 79% 29.90 in 10.0 mi South 8.1 mph - N/A   Scattered Clouds
8:10 AM 77.0 °F - 71.6 °F 83% 29.90 in 10.0 mi South 10.4 mph - N/A   Mostly Cloudy
8:23 AM 77.0 °F - 71.6 °F 83% 29.90 in 10.0 mi South 15.0 mph - N/A   Mostly Cloudy
8:54 AM 78.1 °F - 71.1 °F 79% 29.91 in 10.0 mi South 17.3 mph 24.2 mph N/A   Overcast
9:16 AM 78.8 °F - 71.6 °F 78% 29.91 in 10.0 mi South 15.0 mph - N/A   Mostly Cloudy
9:54 AM 81.0 °F 84.9 °F 71.1 °F 72% 29.91 in 10.0 mi South 16.1 mph 21.9 mph N/A   Mostly Cloudy
10:51 AM 84.2 °F 88.4 °F 69.8 °F 62% 29.90 in 10.0 mi SSW 16.1 mph 27.6 mph N/A   Scattered Clouds
10:54 AM 84.9 °F 88.8 °F 69.1 °F 59% 29.90 in 10.0 mi South 20.7 mph 29.9 mph N/A   Scattered Clouds
11:54 AM 87.1 °F 90.6 °F 68.0 °F 53% 29.88 in 10.0 mi SSW 20.7 mph 24.2 mph N/A   Partly Cloudy
12:54 PM 88.0 °F 90.3 °F 66.0 °F 48% 29.87 in 10.0 mi South 17.3 mph 28.8 mph N/A   Scattered Clouds
1:54 PM 88.0 °F 90.3 °F 66.0 °F 48% 29.85 in 10.0 mi SSW 13.8 mph 25.3 mph N/A   Partly Cloudy
2:54 PM 86.0 °F 88.2 °F 66.0 °F 51% 29.85 in 10.0 mi SW 10.4 mph - N/A   Mostly Cloudy
3:27 PM 75.2 °F - 68.0 °F 78% 29.87 in 10.0 mi WNW 12.7 mph 23.0 mph 0.00 in Rain Light Rain
3:54 PM 73.9 °F - 69.1 °F 85% 29.88 in 2.0 mi WNW 10.4 mph 19.6 mph 0.09 in Rain Heavy Rain
4:05 PM 73.4 °F - 69.8 °F 88% 29.90 in 10.0 mi West 15.0 mph 18.4 mph 0.00 in Rain Light Rain
4:14 PM 73.4 °F - 69.8 °F 88% 29.90 in 1.8 mi West 11.5 mph - 0.08 in Rain Heavy Rain
4:25 PM 73.4 °F - 69.8 °F 88% 29.90 in 2.5 mi West 12.7 mph 20.7 mph 0.13 in Rain Rain
4:33 PM 73.4 °F - 69.8 °F 88% 29.89 in 3.0 mi West 10.4 mph - 0.16 in Rain Rain
4:36 PM 73.4 °F - 69.8 °F 88% 29.90 in 2.5 mi WNW 8.1 mph - 0.18 in Rain Rain
4:54 PM 73.0 °F - 69.1 °F 87% 29.89 in 3.0 mi WSW 5.8 mph - 0.25 in Rain Rain
5:00 PM 73.4 °F - 69.8 °F 88% 29.88 in 2.5 mi WSW 3.5 mph - 0.02 in Rain Rain
5:07 PM 73.4 °F - 69.8 °F 88% 29.87 in 3.0 mi SW 4.6 mph - 0.04 in Rain Light Rain
5:54 PM 73.0 °F - 68.0 °F 84% 29.89 in 6.0 mi SW 8.1 mph - 0.09 in Rain Light Rain
6:54 PM 73.0 °F - 68.0 °F 84% 29.91 in 10.0 mi NW 4.6 mph - 0.02 in Rain Light Rain
7:04 PM 73.4 °F - 68.0 °F 83% 29.91 in 10.0 mi NNW 4.6 mph - 0.00 in Rain Light Rain
7:26 PM 73.4 °F - 68.0 °F 83% 29.93 in 10.0 mi WNW 3.5 mph - 0.00 in   Overcast
7:54 PM 73.0 °F - 68.0 °F 84% 29.93 in 10.0 mi NNW 3.5 mph - 0.00 in Rain Light Rain
8:54 PM 73.0 °F - 68.0 °F 84% 29.94 in 10.0 mi Calm Calm - 0.00 in   Overcast
9:32 PM 73.4 °F - 68.0 °F 83% 29.95 in 10.0 mi NW 5.8 mph - N/A   Overcast
9:50 PM 73.4 °F - 68.0 °F 83% 29.96 in 10.0 mi North 3.5 mph - N/A   Overcast
9:54 PM 72.0 °F - 68.0 °F 87% 29.96 in 10.0 mi North 3.5 mph - N/A   Overcast
10:15 PM 69.8 °F - 64.4 °F 83% 29.99 in 10.0 mi North 19.6 mph 31.1 mph N/A   Overcast
10:35 PM 66.2 °F - 60.8 °F 83% 30.00 in 10.0 mi North 13.8 mph 20.7 mph N/A   Overcast
10:49 PM 64.4 °F - 59.0 °F 83% 30.01 in 10.0 mi North 9.2 mph 19.6 mph N/A   Overcast
10:54 PM 64.9 °F - 59.0 °F 81% 30.01 in 10.0 mi North 11.5 mph - N/A   Overcast
11:54 PM 64.9 °F - 57.0 °F 75% 30.02 in 10.0 mi North 10.4 mph - N/A   Overcast